Weather History for KMRY - August, 2013

Change the Weather History Date:

Thursday, August 1, 2013

  Actual Average Record
Temperature  
Mean Temperature 61 °F 61 °F  
Max Temperature 66 °F 67 °F 73 °F (2000)
Min Temperature 55 °F 54 °F 51 °F (2012)
Degree Days  
Heating Degree Days 4    
Month to date heating degree days 4  
Since 1 June heating degree days 245  
Since 1 July heating degree days 117  
Cooling Degree Days 0    
Month to date cooling degree days 0  
Year to date cooling degree days 21  
Since 1 June cooling degree days 14  
Growing Degree Days 10 (Base 50)    
Moisture  
Dew Point 52 °F    
Average Humidity 75    
Maximum Humidity 86    
Minimum Humidity 63    
Precipitation  
Precipitation 0.00 in - 0.00 in (2015)
Month to date precipitation 0.00  
Year to date precipitation 3.15  
Since 1 July precipitation 0.00  
Sea Level Pressure  
Sea Level Pressure 30.10 in    
Wind  
Wind Speed 9 mph (SW)    
Max Wind Speed 15 mph    
Max Gust Speed 21 mph    
Visibility 10 miles    
Events      
T = Trace of Precipitation, MM = Missing Value Source: NWS Daily Summary

Daily Weather History Graph

Daily Weather History Graph

Search for Another Location

Airport or City:

Trip Planner

Search our weather history database for the weather conditions in past years. The results will help you decide how hot, cold, wet, or windy it might be!

Date:

Astronomy

Aug. 01, 2013 Rise Set
Actual Time 6:13 AM PDT 8:13 PM PDT
Civil Twilight 5:45 AM PDT 8:41 PM PDT
Nautical Twilight 5:10 AM PDT 9:16 PM PDT
Astronomical Twilight 4:33 AM PDT 9:53 PM PDT
Moon 1:54 AM PDT (8/1) 4:25 PM PDT (8/1)
Length of Visible Light 14h 56m
Length of Day
13h 59m
Waning Crescent, 22% of the Moon is Illuminated
Aug 1
Waning Crescent
Aug 6
New
Aug 14
First Quarter
Aug 20
Full
Aug 28
Last Quarter

Hourly Weather History & Observations

Time (PDT) Temp. Dew Point Humidity Pressure Visibility Wind Dir Wind Speed Gust Speed Precip Events Conditions
12:54 AM 57.0 °F 52.0 °F 83% 30.13 in 10.0 mi SSW 6.9 mph - N/A   Overcast
1:54 AM 57.0 °F 52.0 °F 83% 30.13 in 10.0 mi SSW 6.9 mph - N/A   Overcast
2:54 AM 57.0 °F 52.0 °F 83% 30.12 in 10.0 mi SSW 8.1 mph - N/A   Overcast
3:54 AM 57.0 °F 52.0 °F 83% 30.11 in 10.0 mi SSW 6.9 mph - N/A   Overcast
4:34 AM 55.4 °F 51.8 °F 88% 30.08 in 10.0 mi SW 8.1 mph - N/A   Scattered Clouds
4:43 AM 57.2 °F 51.8 °F 82% 30.08 in 10.0 mi SW 5.8 mph - N/A   Mostly Cloudy
4:54 AM 57.0 °F 53.1 °F 87% 30.12 in 10.0 mi SSW 5.8 mph - N/A   Mostly Cloudy
5:50 AM 55.4 °F 51.8 °F 88% 30.09 in 10.0 mi SW 9.2 mph - N/A   Mostly Cloudy
5:54 AM 57.0 °F 52.0 °F 83% 30.13 in 10.0 mi SW 9.2 mph - N/A   Mostly Cloudy
6:54 AM 57.0 °F 52.0 °F 83% 30.14 in 10.0 mi SW 8.1 mph - N/A   Overcast
7:54 AM 57.9 °F 53.1 °F 84% 30.15 in 10.0 mi WSW 6.9 mph - N/A   Overcast
8:54 AM 59.0 °F 52.0 °F 78% 30.16 in 10.0 mi WSW 10.4 mph - N/A   Overcast
9:54 AM 60.1 °F 52.0 °F 75% 30.17 in 10.0 mi West 10.4 mph - N/A   Overcast
10:51 AM 62.6 °F 53.6 °F 72% 30.13 in 10.0 mi West 11.5 mph - N/A   Overcast
10:54 AM 62.1 °F 52.0 °F 70% 30.17 in 10.0 mi WNW 11.5 mph - N/A   Overcast
11:54 AM 64.0 °F 53.1 °F 67% 30.17 in 10.0 mi WSW 11.5 mph - N/A   Mostly Cloudy
12:05 PM 64.4 °F 53.6 °F 68% 30.13 in 10.0 mi WSW 6.9 mph 17.3 mph N/A   Scattered Clouds
12:54 PM 64.9 °F 52.0 °F 63% 30.16 in 10.0 mi West 11.5 mph - N/A   Partly Cloudy
1:54 PM 64.9 °F 53.1 °F 65% 30.14 in 10.0 mi West 11.5 mph - N/A   Partly Cloudy
2:54 PM 66.0 °F 53.1 °F 63% 30.13 in 10.0 mi West 11.5 mph - N/A   Clear
3:54 PM 66.0 °F 53.1 °F 63% 30.11 in 10.0 mi WSW 12.7 mph - N/A   Clear
4:54 PM 64.0 °F 52.0 °F 65% 30.10 in 10.0 mi West 12.7 mph 19.6 mph N/A   Clear
5:52 PM 62.6 °F 53.6 °F 72% 30.05 in 10.0 mi WSW 11.5 mph - N/A   Mostly Cloudy
5:54 PM 62.1 °F 53.1 °F 72% 30.09 in 10.0 mi West 12.7 mph - N/A   Mostly Cloudy
6:03 PM 62.6 °F 53.6 °F 72% 30.05 in 10.0 mi West 9.2 mph - N/A   Mostly Cloudy
6:50 PM 60.8 °F 51.8 °F 72% 30.04 in 10.0 mi SW 10.4 mph - N/A   Scattered Clouds
6:54 PM 61.0 °F 52.0 °F 72% 30.08 in 10.0 mi WSW 11.5 mph - N/A   Scattered Clouds
7:36 PM 60.8 °F 51.8 °F 72% 30.04 in 10.0 mi SW 11.5 mph - N/A   Mostly Cloudy
7:54 PM 59.0 °F 52.0 °F 78% 30.07 in 10.0 mi SW 9.2 mph - N/A   Overcast
8:54 PM 57.9 °F 53.1 °F 84% 30.07 in 10.0 mi SSW 6.9 mph - N/A   Overcast
9:54 PM 57.9 °F 53.1 °F 84% 30.07 in 10.0 mi SSW 6.9 mph - N/A   Overcast
10:52 PM 57.2 °F 51.8 °F 82% 30.02 in 10.0 mi SSW 5.8 mph - N/A   Scattered Clouds
10:54 PM 57.0 °F 52.0 °F 83% 30.06 in 10.0 mi SSW 5.8 mph - N/A   Scattered Clouds
11:54 PM 55.9 °F 52.0 °F 87% 30.04 in 10.0 mi South 6.9 mph - N/A   Partly Cloudy